PROFILE

 METAR AND TAF INFORMATION
ADDS - METARS form results

(0554 UTC 19 July 2019)
http://aviationweather.gov/metar/data/
 
LOWS 190520Z 17005KT 150V210 9999 FEW080 SCT120 BKN300 17/12 Q1017 TEMPO 30008KT
TAF LOWS 190515Z 1906/2006 15007KT 9999 FEW060 SCT130 BKN300 TX27/1914Z TN17/2002Z TEMPO 1906/1908 30008KT SCT060 BKN130 BECMG 1908/1910 34005KT PROB40 TEMPO 1913/1918 15010KT FEW050CB SCT060 BECMG 1918/1920 15005KT CAVOK 

 AIRPORT MAP

 RUNWAY INFORMATION
Runway 16 Runway length 9022 ft Runway width 148 ft
Runway elevation 1411 ft Runway displaced threshold 656 ft Runway heading 157
Runway 34 Runway length 9022 ft Runway width 148 ft
Runway elevation 1411 ft Runway displaced threshold 787 ft Runway heading 337

 AIRPORT FREQUENCIES
Type APP Name APP Frequency 123.725 MHZ
Type ATIS Name ATIS Frequency 125.725 MHZ
Type GND Name GND Frequency 121.75 MHZ
Type TWR Name TWR Frequency 118.1 MHZ

 AIRPORT NEAR NAVIGATION AIDS
Type VOR-DME Name Salzburg Frequency 113800 KHZ
Type NDB Name Salzburg Frequency 382 KHZ
Type NDB Name Salzburg Frequency 410 KHZ
Type NDB Name Salzburg Frequency 356 KHZ